FW8197 Weather Reports


time (UTC)temp
F
wind
direction
speed
knots
gust
knots
rain 1hr
in
rain 24hr
in
rain mn
in
humidity
%
barometer
mb
20260508100058 57 64 1.7 5.2 0.00 0.00 0.00 75 1016.4
20260508094612 55 0 0.9 3.5 0.00 0.00 0.00 78 1016.3
20260508093057 54 0 0.0 2.6 0.00 0.00 0.00 77 1016.5
20260508091555 54 105 0.9 3.5 0.00 0.00 0.00 78 1016.6
20260508090113 55 87 0.9 3.5 0.00 0.00 0.00 77 1016.4
20260508084611 56 66 0.0 3.5 0.00 0.00 0.00 77 1016.5
20260508083115 55 89 1.7 3.5 0.00 0.00 0.00 78 1016.4
20260508081555 54 0 0.0 2.6 0.00 0.00 0.00 84 1016.4
20260508080056 53 110 0.0 3.5 0.00 0.00 0.00 83 1016.4
20260508074600 53 86 0.9 2.6 0.00 0.00 0.00 82 1016.2
20260508073058 52 0 0.0 0.0 0.00 0.00 0.00 86 1016.1
20260508071556 50 48 0.0 1.7 0.00 0.00 0.00 92 1016.0
20260508070057 46 35 0.0 0.9 0.00 0.00 0.00 94 1015.7
20260508064615 45 0 0.0 0.0 0.00 0.00 0.00 95 1015.7
20260508063103 44 0 0.0 0.9 0.00 0.00 0.00 94 1015.7
20260508061600 44 0 0.0 0.9 0.00 0.00 0.00 95 1015.7
20260508060058 43 0 0.0 0.0 0.00 0.00 0.00 95 1015.5
20260508054604 42 0 0.0 0.0 0.00 0.00 0.00 95 1015.3
20260508053058 41 0 0.0 0.0 0.00 0.00 0.00 94 1015.2
20260508051602 41 0 0.0 0.0 0.00 0.00 0.00 94 1015.0
20260508050100 41 0 0.0 0.0 0.00 0.00 0.00 94 1014.9
20260508044601 41 0 0.0 0.0 0.00 0.00 0.00 93 1015.0
20260508043103 41 0 0.0 0.0 0.00 0.00 0.00 94 1014.9
20260508041600 41 0 0.0 0.0 0.00 0.00 0.00 93 1014.8
20260508040056 42 0 0.0 0.0 0.00 0.00 0.00 93 1014.6
20260508034604 42 0 0.0 0.0 0.00 0.00 0.00 93 1014.8
20260508033057 43 0 0.0 0.9 0.00 0.00 0.00 92 1014.6
20260508031600 43 0 0.0 0.0 0.00 0.00 0.00 91 1014.6
20260508030103 44 0 0.0 0.0 0.00 0.00 0.00 91 1014.6
20260508024556 45 0 0.0 0.0 0.00 0.00 0.00 91 1014.6
20260508023059 46 0 0.0 0.0 0.00 0.00 0.00 90 1014.5
20260508021558 46 0 0.0 0.0 0.00 0.00 0.00 89 1014.5
20260508020057 47 0 0.0 0.0 0.00 0.00 0.00 88 1014.4
20260508014559 48 0 0.0 0.0 0.00 0.00 0.00 87 1014.5
20260508013100 48 0 0.0 0.0 0.00 0.00 0.00 87 1014.6
20260508011556 48 0 0.0 1.7 0.00 0.00 0.00 87 1014.5
20260508010057 49 0 0.0 0.9 0.00 0.00 0.00 89 1014.5
20260508004601 49 0 0.0 2.6 0.00 0.00 0.00 89 1014.6
20260508003107 49 0 0.0 0.0 0.00 0.00 0.00 89 1014.6
20260508001600 49 0 0.0 0.0 0.00 0.00 0.00 89 1014.7
20260508000100 49 0 0.0 0.0 0.00 0.00 0.00 88 1014.7
20260507234601 49 0 0.0 0.9 0.00 0.00 0.00 88 1014.6
20260507233100 49 0 0.0 1.7 0.00 0.00 0.00 88 1014.6
20260507231603 49 240 0.0 1.7 0.00 0.00 0.00 87 1014.5
20260507230102 49 266 0.9 1.7 0.00 0.00 0.00 87 1014.6
20260507224620 49 256 0.0 2.6 0.00 0.00 0.00 87 1014.4
20260507223101 50 158 0.0 2.6 0.00 0.00 0.00 86 1014.3
20260507221558 50 243 0.0 1.7 0.00 0.00 0.00 85 1014.3
20260507220058 50 196 0.0 2.6 0.00 0.00 0.00 84 1014.3
20260507214604 50 181 0.0 1.7 0.00 0.00 0.00 84 1014.3
20260507213101 51 0 0.0 1.7 0.00 0.00 0.00 83 1014.2
20260507211626 51 283 0.0 1.7 0.00 0.00 0.00 83 1014.1
20260507204605 51 257 0.9 2.6 0.00 0.00 0.00 82 1013.9
20260507203101 51 248 0.9 3.5 0.00 0.00 0.00 82 1013.6
20260507201612 51 233 1.7 5.2 0.00 0.00 0.00 81 1013.5
20260507200104 51 257 1.7 5.2 0.00 0.00 0.00 79 1013.3
20260507194604 52 257 3.5 8.7 0.00 0.00 0.00 78 1013.1
20260507193057 53 205 1.7 5.2 0.00 0.00 0.00 79 1012.9
20260507191600 53 148 0.9 5.2 0.00 0.00 0.00 78 1012.8
20260507190057 53 151 0.9 4.3 0.00 0.00 0.00 77 1012.8
20260507184558 53 239 0.9 4.3 0.00 0.00 0.00 76 1012.9
20260507183059 54 255 1.7 5.2 0.00 0.00 0.00 76 1012.7
20260507181559 54 151 2.6 7.8 0.00 0.00 0.00 75 1012.5
20260507180059 54 195 2.6 5.2 0.00 0.00 0.00 75 1012.5
20260507174557 54 224 2.6 7.0 0.00 0.00 0.00 75 1012.4
20260507173101 54 145 1.7 3.5 0.00 0.00 0.00 75 1012.2
20260507171602 55 245 1.7 5.2 0.00 0.00 0.00 73 1012.4
20260507170058 55 226 2.6 7.8 0.00 0.00 0.00 71 1012.3
20260507164559 55 278 2.6 6.1 0.00 0.00 0.00 69 1012.3
20260507163057 56 263 1.7 3.5 0.00 0.00 0.00 69 1012.3
20260507161600 56 260 1.7 3.5 0.00 0.00 0.00 68 1012.2
20260507160108 56 177 0.9 3.5 0.00 0.00 0.00 69 1012.2
20260507154559 56 285 0.9 5.2 0.00 0.00 0.00 68 1012.5
20260507153100 56 254 2.6 3.5 0.00 0.00 0.00 66 1012.4
20260507151558 56 222 2.6 5.2 0.00 0.00 0.00 66 1012.4
20260507150057 57 247 3.5 7.8 0.00 0.00 0.00 64 1012.4
20260507144556 57 262 2.6 7.0 0.00 0.00 0.00 58 1012.4
20260507143105 58 270 2.6 4.3 0.00 0.00 0.00 64 1012.4
20260507141559 57 243 2.6 7.0 0.00 0.00 0.00 64 1012.5
20260507140111 58 200 2.6 7.8 0.00 0.00 0.00 61 1012.6
20260507134556 58 229 2.6 6.1 0.00 0.00 0.00 59 1012.4
20260507133058 58 236 2.6 5.2 0.00 0.00 0.00 59 1012.7
20260507131600 57 283 2.6 8.7 0.00 0.00 0.00 60 1012.7
20260507130058 57 276 3.5 8.7 0.00 0.00 0.00 58 1012.8
20260507124559 57 153 3.5 9.6 0.00 0.00 0.00 62 1012.8
20260507123059 57 122 2.6 7.0 0.00 0.00 0.00 62 1012.9
20260507121559 57 239 2.6 9.6 0.00 0.00 0.00 63 1012.9
20260507120058 56 340 4.3 8.7 0.00 0.00 0.00 65 1012.8
20260507114558 55 175 2.6 7.0 0.00 0.00 0.00 69 1013.0
20260507113058 56 128 2.6 10.4 0.00 0.00 0.00 71 1013.1
20260507111556 57 207 2.6 7.0 0.00 0.00 0.00 72 1013.1
20260507110059 55 113 4.3 7.8 0.00 0.00 0.00 76 1013.0
20260507104558 53 177 2.6 7.8 0.00 0.00 0.00 78 1013.1
20260507103055 54 141 2.6 7.8 0.00 0.00 0.00 77 1013.3
20260507101606 55 201 4.3 8.7 0.00 0.00 0.00 77 1013.2